User: anonymous   Login
Location: Durham
(54.7770°N, 1.5720°W)
Time: 22:36:05
(UTC+00:00)
Language:

ISS - Orbit

View from above orbital plane
View from above orbital plane
View from above satellite
View from above satellite

Ground track
Ground track

The orbit data is extracted from the following two-line orbital elements,

1 25544U 98067A   15031.56209873  .00014346  00000-0  22294-3 0  8045
2 25544 051.6471 046.2576 0005856 312.7001 191.4859 15.54193767926770
Epoch (UTC): 31 January 2015 13:29:25
Eccentricity: 0.0005856
inclination: 51.6471°
perigee height: 400 km
apogee height: 408 km
right ascension of ascending node: 46.2576°
argument of perigee: 312.7001°
revolutions per day: 15.54193767
mean anomaly at epoch: 191.4859°
orbit number at epoch: 92677

The dashed part of the orbit path shows where the satellite is in the earth's shadow,  

DLR